Retour au catalogue

SL-8 DEB

ActifLEO
NORAD 19945·DEBRIS·🇷🇺 Russia

Lancé Jan 26, 1989 depuis Plesetsk Cosmodrome

Loading…

Prochains Passages (prochaines 24 heures)

TLE

FraisSource: Space-Track

Époque: Sep 14, 2026, 01:05 UTC

1 19945U 89005D   26257.04561124  .00001025  00000-0  24181-3 0  9992
2 19945  74.0565 200.7656 0020490 227.6083 258.6340 14.55416834800429

Suivez SL-8 DEB en temps réel avec AllMySat

Download on the App Store